[[{"header":{"parameterUnit":"m.s-1","parameterCategory":1,"la1":30.2992,"la2":30.254,"lo1":-89.0895,"lo2":-89.0443,"dy":0.0025,"dx":0.0025,"nx":19,"ny":19,"refTime":"2026-04-26T03:00:00:Z","depth":0,"parameterNumber":2,"parameterNumberName":"U-component_of_WINDS"},"data":[0,0,0,-2.7127,-2.7129,-2.7225,-2.7225,-2.7352,-2.7353,0,0,0,0,0,0,0,0,0,0,0,-2.71,-2.7101,-2.7127,-2.7129,-2.7225,-2.7225,-2.7352,-2.7353,0,0,0,0,0,0,0,0,0,0,0,-2.71,-2.7101,-2.7102,-2.713,-2.7225,-2.7225,-2.7351,-2.7278,0,0,0,0,0,0,0,0,0,0,-2.7185,-2.7161,-2.7101,-2.7102,-2.713,-2.7224,-2.7225,-2.7274,-2.7283,-2.731,0,-2.7334,0,-2.7346,-2.7362,-2.7362,0,0,0,-2.7128,-2.7154,-2.7179,-2.7102,-2.7131,-2.7224,-2.7181,-2.7279,-2.7288,-2.7321,-2.7336,-2.7341,-2.7348,-2.7363,-2.7363,-2.7525,-2.7526,0,0,-2.7123,-2.7119,-2.7172,-2.7185,-2.7169,-2.7178,-2.7184,-2.7284,-2.7301,-2.7337,-2.7344,-2.735,-2.7363,-2.7364,-2.7525,-2.7526,0,0,0,-2.7109,-2.7115,-2.7137,-2.718,-2.7196,-2.7181,-2.7188,-2.7296,-2.7304,-2.7345,-2.7352,-2.7364,-2.7366,-2.7524,-2.7525,-2.7559,0,0,0,-2.7105,-2.7106,-2.7134,-2.7133,-2.7195,-2.7247,-2.7198,-2.7297,-2.7308,-2.7351,-2.7364,-2.7367,-2.7523,-2.7524,-2.7556,-2.7576,0,0,0,-2.7094,-2.7105,-2.7119,-2.7132,-2.7173,-2.7246,-2.7259,-2.7299,-2.7312,-2.7362,-2.7367,-2.7522,-2.7524,-2.7554,-2.7572,-2.7617,0,0,0,-2.708,-2.7149,-2.712,-2.72,-2.7172,-2.7266,-2.7258,-2.7329,-2.7376,-2.7365,-2.7523,-2.7525,-2.7553,-2.7569,-2.7614,-2.7653,-2.7669,0,0,-2.7164,-2.7159,-2.7206,-2.7183,-2.7281,-2.7252,-2.7356,-2.7404,-2.7413,-2.7488,-2.7492,-2.7557,-2.7571,-2.7616,-2.7763,-2.7775,0,0,0,-2.7231,-2.7265,-2.7292,-2.7336,-2.7375,-2.7409,-2.7442,-2.746,-2.7523,-2.745,-2.7587,-2.7595,-2.7622,-2.764,-2.7651,-2.7674,-2.7534,-2.7533,-2.7533,-2.7342,-2.7351,-2.743,-2.7451,-2.7494,-2.7528,-2.7565,-2.7595,-2.7591,-2.7623,-2.7645,-2.7732,-2.7754,-2.7762,-2.7786,-2.7667,-2.7667,-2.7667,-2.7668,-2.7466,-2.7515,-2.7509,-2.7583,-2.7593,-2.7656,-2.7693,-2.7688,-2.7749,-2.7717,-2.774,-2.7703,-2.7776,-2.7797,-2.767,-2.767,-2.7669,-2.7669,-2.7669,-2.7538,-2.7563,-2.7584,-2.765,-2.7701,-2.7721,-2.778,-2.7787,-2.7794,-2.7818,-2.7841,-2.7841,-2.784,-2.7829,-2.7829,-2.783,-2.783,-2.783,-2.783,-2.7604,-2.7627,-2.7675,-2.7723,-2.7753,-2.7794,-2.7831,-2.7862,-2.7897,-2.7898,-2.7898,-2.7891,-2.7782,-2.7753,-2.7835,-2.7834,-2.7834,-2.7833,-2.7833,-2.7723,-2.7698,-2.7772,-2.7802,-2.786,-2.791,-2.792,-2.7982,-2.8008,-2.8037,-2.8027,-2.7945,-2.794,-2.7931,-2.7908,-2.8024,-2.8024,-2.8024,-2.8024,-2.7783,-2.7782,-2.7859,-2.7908,-2.7956,-2.7973,-2.8058,-2.8089,-2.8116,-2.8134,-2.8119,-2.8089,-2.808,-2.808,-2.8068,-2.8046,-2.8196,-2.8196,-2.8196,-2.7856,-2.786,-2.793,-2.7956,-2.8003,-2.8043,-2.8123,-2.8181,-2.8207,-2.8203,-2.8148,-2.814,-2.8092,-2.8076,-2.8068,-2.805,-2.801,0,0]},{"header":{"parameterUnit":"m.s-1","parameterCategory":1,"la1":30.2992,"la2":30.254,"lo1":-89.0895,"lo2":-89.0443,"dy":0.0025,"dx":0.0025,"nx":19,"ny":19,"refTime":"2026-04-26T03:00:00:Z","depth":0,"parameterNumber":3,"parameterNumberName":"V-component_of_WINDS"},"data":[0,0,0,2.3597,2.3596,2.3515,2.3514,2.3423,2.3422,0,0,0,0,0,0,0,0,0,0,0,2.3632,2.3632,2.3597,2.3595,2.3515,2.3514,2.3423,2.3422,0,0,0,0,0,0,0,0,0,0,0,2.3632,2.3632,2.3631,2.3595,2.3515,2.3514,2.3423,2.3479,0,0,0,0,0,0,0,0,0,0,2.3555,2.3599,2.3632,2.3631,2.3595,2.3515,2.3514,2.3482,2.3476,2.3466,0,2.3464,0,2.3442,2.3417,2.3417,0,0,0,2.3586,2.3604,2.3573,2.3631,2.3594,2.3515,2.3548,2.3478,2.3471,2.3459,2.3462,2.3458,2.3441,2.3417,2.3417,2.3402,2.3402,0,0,2.3591,2.3622,2.3578,2.3569,2.3586,2.3551,2.3546,2.3474,2.3479,2.3462,2.3456,2.3439,2.3416,2.3416,2.3401,2.3402,0,0,0,2.361,2.3626,2.3596,2.3573,2.3558,2.3549,2.3543,2.3482,2.347,2.3455,2.3438,2.3416,2.3415,2.3401,2.3401,2.3452,0,0,0,2.3612,2.3637,2.3598,2.3617,2.356,2.352,2.3553,2.3475,2.3465,2.3439,2.3416,2.3414,2.34,2.3401,2.345,2.347,0,0,0,2.3633,2.3639,2.3632,2.3619,2.3585,2.352,2.3503,2.3472,2.3456,2.3417,2.3414,2.34,2.3401,2.3448,2.3466,2.3476,0,0,0,2.3664,2.3675,2.3633,2.3638,2.3586,2.3553,2.3504,2.3476,2.3449,2.3416,2.3401,2.3401,2.3447,2.3464,2.3474,2.349,2.35,0,0,2.3695,2.368,2.3681,2.3641,2.3624,2.3563,2.3551,2.3495,2.346,2.3422,2.3421,2.345,2.3466,2.3476,2.3544,2.3552,0,0,0,2.3701,2.3702,2.3691,2.3669,2.3629,2.3595,2.3537,2.3516,2.3484,2.3448,2.3455,2.3464,2.3468,2.3474,2.3481,2.3482,2.3406,2.3406,2.3406,2.379,2.3748,2.3747,2.3696,2.3675,2.3617,2.3595,2.3556,2.3517,2.352,2.3509,2.3556,2.3564,2.3569,2.3571,2.3513,2.3514,2.3514,2.3514,2.3832,2.3827,2.3779,2.3761,2.3716,2.3698,2.3642,2.3616,2.3591,2.356,2.3562,2.3532,2.358,2.3579,2.3517,2.3517,2.3516,2.3516,2.3516,2.3885,2.3876,2.3853,2.3818,2.3795,2.3741,2.3721,2.368,2.364,2.3642,2.3625,2.3624,2.3618,2.3637,2.3637,2.3637,2.3637,2.3638,2.3638,2.395,2.3923,2.3913,2.3873,2.3854,2.3823,2.3766,2.3744,2.371,2.3681,2.3681,2.3642,2.3593,2.3581,2.364,2.364,2.3639,2.3639,2.3639,2.4009,2.399,2.3975,2.3956,2.3906,2.3885,2.3834,2.3795,2.3771,2.3762,2.3723,2.3694,2.3674,2.3668,2.3658,2.3733,2.3733,2.3733,2.3733,2.4055,2.4042,2.4018,2.3991,2.3959,2.3912,2.3894,2.3849,2.3798,2.378,2.3763,2.3747,2.3743,2.3725,2.3718,2.3708,2.3794,2.3794,2.3794,2.4088,2.4071,2.4065,2.4019,2.3977,2.3941,2.3922,2.3891,2.3829,2.3796,2.3766,2.3763,2.3736,2.3729,2.3695,2.3685,2.3666,0,0]}]]